User: anonymous   Login
Location: Walnut Point State Park
(39.6958°N, 88.0345°W)
Time: 11:11:20
(UTC-05:00)
Language:

Iridium 75 - Orbit

View from above orbital plane
View from above orbital plane
View from above satellite
View from above satellite

Ground track
Ground track

The orbit data is extracted from the following two-line orbital elements,

1 25346U 98032E   16126.28645265  .00000241  00000-0  79050-4 0  9998
2 25346  86.4000  34.6305 0002141  83.9063  29.7317 14.34217353941206
Epoch (UTC): 05 May 2016 06:52:29
Eccentricity: 0.0002141
inclination: 86.4000°
perigee height: 776 km
apogee height: 779 km
right ascension of ascending node: 34.6305°
argument of perigee: 83.9063°
revolutions per day: 14.34217353
mean anomaly at epoch: 29.7317°
orbit number at epoch: 94120

The dashed part of the orbit path shows where the satellite is in the earth's shadow,  

DLR